Stations météo

Publicité
Colmar, France (7197): Température de l'air & dewpoint: 10.01.2019 17:00:00 - 16.01.2019 17:00:00 (CET)Colmar, France (7197): Température de l'air 5cm: 10.01.2019 17:00:00 - 16.01.2019 17:00:00 (CET)Colmar, France (7197): Température de l'air -20cm & Température de l'air -100cm: 10.01.2019 17:00:00 - 16.01.2019 17:00:00 (CET)Colmar, France (7197): Vitesse du vent & gusts: 10.01.2019 17:00:00 - 16.01.2019 17:00:00 (CET)Colmar, France (7197): Direction du vent: 10.01.2019 17:00:00 - 16.01.2019 17:00:00 (CET)Colmar, France (7197): reduced air pressure: 10.01.2019 17:00:00 - 16.01.2019 17:00:00 (CET)Colmar, France (7197): visibility: 10.01.2019 17:00:00 - 16.01.2019 17:00:00 (CET)Colmar, France (7197): Ensoleillement: 10.01.2019 17:00:00 - 16.01.2019 17:00:00 (CET)Colmar, France (7197): Quantités de précipitations: 10.01.2019 17:00:00 - 16.01.2019 17:00:00 (CET)
Date & Time tt [°C] td [°C] tt 5cm [°C] tt -20cm [°C] tt -100cm [°C] ff [km/h] ff [knt] fx [km/h] fx [knt] dd ppp [hPa] vv [km] sd [min] rr [mm]
16.01.2019 17:00:00 7,7 -0,3 7,1 3,5 6,5 28 15 45 24 SSW 1011,5 20 38 0,0
16.01.2019 16:00:00 8,8 0,0 9,5 3,3 6,4 18 10 37 20 S 1011,7 20 60 0,0
16.01.2019 15:00:00 8,8 -1,1 8,5 3,0 6,4 15 8 34 18 S 1012,4 20 12 0,0
16.01.2019 14:00:00 7,8 -0,9 7,8 2,8 6,5 19 10 35 19 SSW 1013,2 20 4 0,0
16.01.2019 13:00:00 7,2 -0,5 7,9 2,6 6,4 21 11 35 19 SSW 1014,2 20 57 0,0
16.01.2019 12:00:00 5,5 -0,1 4,8 2,5 6,4 18 10 31 17 S 1015,3 20 60 0,0
16.01.2019 11:00:00 3,2 -0,4 2,7 2,6 6,4 12 6 20 11 SSW 1016,9 20 60 0,0
16.01.2019 10:00:00 1,4 -0,8 -2,7 2,7 6,5 10 6 18 10 S 1017,8 20 60 0,0
16.01.2019 09:00:00 -1,9 -2,5 -5,2 2,9 6,5 5 3 8 5 SSE 1018,5 13 18 0,0
16.01.2019 08:00:00 -2,8 -3,3 -5,2 3,0 6,4 5 3 8 4 SE 1018,8 8 0 0,0
16.01.2019 07:00:00 -2,2 -2,9 -4,5 3,1 6,4 3 2 8 4 WNW 1019,0 5 0 0,0
16.01.2019 06:00:00 -1,5 -2,5 -3,2 3,3 6,4 6 3 10 6 SSW 1019,1 13 0 0,0
16.01.2019 05:00:00 -1,2 -1,9 -3,7 3,4 6,4 8 4 10 5 SSW 1019,8 13 0 0,0
16.01.2019 04:00:00 -0,9 -1,9 -2,6 3,6 6,4 5 3 13 7 SW 1020,6 8 0 0,0
16.01.2019 03:00:00 0,2 -1,4 -2,2 3,8 6,4 8 4 13 7 SSW 1021,2 20 0 0,0
16.01.2019 02:00:00 0,6 -1,3 -2,1 4,0 6,4 7 4 12 6 SSW 1021,5 20 0 0,0
16.01.2019 01:00:00 0,7 -0,3 -3,2 4,2 6,4 7 4 12 7 S 1021,9 16 0 0,0
16.01.2019 00:00:00 1,2 -0,3 -2,8 4,4 6,4 6 3 9 5 S 1022,4 20 0 0,0
15.01.2019 23:00:00 1,9 -0,4 -1,3 4,5 6,4 4 2 8 4 S 1022,9 20 0 0,0
15.01.2019 22:00:00 3,5 0,7 1,5 4,6 6,4 4 2 9 5 S 1022,9 20 0 0,0
15.01.2019 21:00:00 4,6 0,0 3,5 4,7 6,4 4 2 10 5 SSW 1023,1 20 0 0,0
15.01.2019 20:00:00 4,6 0,9 4,1 4,8 6,4 7 4 10 6 SW 1023,5 20 0 0,0
15.01.2019 19:00:00 4,8 1,1 3,4 4,8 6,4 6 3 11 6 SSW 1023,6 20 0 0,0
15.01.2019 18:00:00 4,4 1,1 3,3 4,8 6,4 8 4 14 8 SSW 1023,7 20 0 0,0
15.01.2019 17:00:00 5,8 1,1 5,2 4,8 6,4 7 4 20 11 SW 1023,7 20 1 0,0
15.01.2019 16:00:00 8,0 0,2 8,0 4,6 6,4 14 8 23 12 WSW 1023,5 20 41 0,0
15.01.2019 15:00:00 8,4 1,1 9,3 4,3 6,4 11 6 24 13 SW 1023,4 20 55 0,0
15.01.2019 14:00:00 7,9 1,1 9,3 4,0 6,4 15 8 23 13 SSW 1023,5 20 60 0,0
15.01.2019 13:00:00 7,7 1,7 9,7 3,8 6,4 11 6 18 10 S 1024,1 20 60 0,0
15.01.2019 12:00:00 6,7 2,6 7,7 3,5 6,4 13 7 21 12 SSW 1024,6 20 60 0,0
15.01.2019 11:00:00 5,2 2,7 5,5 3,4 6,4 13 7 21 11 SSW 1025,3 20 60 0,0
15.01.2019 10:00:00 3,7 1,9 1,6 3,5 6,4 8 4 14 8 S 1025,4 20 17 0,0
15.01.2019 09:00:00 2,1 0,9 1,6 3,6 6,4 8 4 16 9 S 1025,4 20 0 0,0
15.01.2019 08:00:00 2,4 1,1 0,7 3,7 6,3 6 4 16 9 S 1025,1 20 0 0,0
15.01.2019 07:00:00 2,2 1,0 1,1 3,8 6,3 5 3 11 6 S 1024,8 20 0 0,0
15.01.2019 06:00:00 2,1 1,1 1,2 3,9 6,3 3 1 9 5 SSE 1025,0 20 0 0,0
15.01.2019 05:00:00 2,3 1,3 1,5 4,0 6,3 5 3 10 6 S 1025,3 20 0 0,0
15.01.2019 04:00:00 2,4 1,4 1,7 4,1 6,3 5 3 13 7 S 1025,3 19 0 0,0
15.01.2019 03:00:00 2,3 1,1 1,6 4,1 6,3 6 4 13 7 SSW 1025,5 19 0 0,0
15.01.2019 02:00:00 2,1 1,5 0,7 4,3 6,3 6 3 9 5 S 1025,0 20 0 0,0
15.01.2019 01:00:00 1,3 0,7 0,0 4,4 6,3 3 2 6 3 SE 1024,9 17 0 0,0
15.01.2019 00:00:00 1,3 0,6 -0,2 4,6 6,3 0 0 9 5 N 1024,3 19 0 0,0
14.01.2019 23:00:00 2,0 1,0 -0,5 4,7 6,2 6 3 11 6 S 1023,5 20 0 0,0
14.01.2019 22:00:00 2,3 1,3 0,6 4,9 6,3 6 3 11 6 ESE 1023,0 20 0 0,0
14.01.2019 21:00:00 2,5 1,2 0,8 5,0 6,2 6 3 10 6 W 1022,4 20 0 0,0
14.01.2019 20:00:00 4,4 2,1 3,9 5,1 6,2 6 3 22 12 NNE 1021,4 20 0 0,0
14.01.2019 19:00:00 5,9 1,2 4,3 5,2 6,2 6 3 22 12 NNW 1020,0 20 0 0,0
14.01.2019 18:00:00 5,2 2,4 4,2 5,2 6,2 8 4 21 11 SW 1019,7 20 0 0,0
14.01.2019 17:00:00 5,6 2,8 4,6 5,2 6,2 14 8 23 12 SW 1018,7 20 15 0,0
14.01.2019 16:00:00 6,8 3,6 5,7 5,1 6,2 12 6 17 9 W 1018,2 20 4 0,0
14.01.2019 15:00:00 6,0 4,0 4,8 5,0 6,2 10 6 26 14 W 1017,7 20 0 0,4
14.01.2019 14:00:00 7,8 2,0 6,1 4,9 6,2 10 5 27 14 WSW 1016,9 20 0 0,0
14.01.2019 13:00:00 7,6 1,9 7,6 4,7 6,2 16 9 36 20 W 1016,8 20 5 0,0
14.01.2019 12:00:00 7,8 3,1 7,5 4,5 6,2 20 11 29 16 W 1016,4 20 37 0,0
14.01.2019 11:00:00 6,8 4,3 5,3 4,5 6,2 17 9 23 12 WSW 1016,1 20 14 0,0
14.01.2019 10:00:00 5,6 3,4 3,4 4,5 6,2 7 4 13 7 WSW 1015,7 20 0 0,0
14.01.2019 09:00:00 4,7 2,7 2,7 4,6 6,2 2 1 15 8 SSW 1014,9 20 0 0,0
14.01.2019 08:00:00 4,6 2,6 2,5 4,6 6,2 2 1 40 22 ESE 1013,8 20 0 0,4
14.01.2019 07:00:00 5,7 2,5 4,7 4,7 6,2 10 5 21 11 NW 1012,7 20 0 0,0
14.01.2019 06:00:00 6,4 2,5 4,9 4,7 6,2 10 5 17 9 NW 1012,1 20 0 0,0
14.01.2019 05:00:00 6,1 3,1 4,0 4,7 6,2 2 1 16 9 SE 1011,2 20 0 0,0
14.01.2019 04:00:00 6,5 2,9 5,0 4,8 6,2 7 4 29 16 W 1010,6 20 0 0,0
14.01.2019 03:00:00 7,4 5,2 5,9 4,7 6,2 22 12 34 19 NW 1009,6 16 0 0,6
14.01.2019 02:00:00 7,3 5,9 6,1 4,7 6,2 10 5 15 8 S 1008,6 20 0 0,6
14.01.2019 01:00:00 7,7 6,0 6,8 4,6 6,2 8 4 29 16 SSW 1008,7 18 0 0,0
14.01.2019 00:00:00 8,4 5,7 7,7 4,6 6,2 17 9 33 18 SSW 1008,8 20 0 0,0
13.01.2019 23:00:00 8,7 5,6 7,6 4,5 6,2 17 9 37 20 SSW 1008,5 20 0 0,0
13.01.2019 22:00:00 8,6 5,5 6,9 4,5 6,2 18 10 31 17 SW 1009,0 20 0 0,2
13.01.2019 21:00:00 8,7 6,0 7,0 4,4 6,2 6 3 37 20 WSW 1009,8 20 0 0,0
13.01.2019 20:00:00 8,3 6,4 7,1 4,3 6,2 20 11 41 22 SW 1008,9 20 0 0,6
13.01.2019 19:00:00 8,4 6,0 7,2 4,2 6,2 26 14 52 28 SSW 1009,3 20 0 0,2
13.01.2019 18:00:00 8,4 6,0 7,7 4,1 6,2 27 15 49 27 SSW 1010,0 20 0 0,0
13.01.2019 17:00:00 8,2 5,8 7,7 4,0 6,2 27 15 44 24 SSW 1011,5 20 0 0,0
13.01.2019 16:00:00 8,2 5,8 8,0 3,8 6,2 27 14 48 26 SSW 1012,0 20 0 0,0
13.01.2019 15:00:00 8,2 5,5 7,7 3,7 6,2 26 14 50 27 SSW 1012,7 20 0 0,0
13.01.2019 14:00:00 7,9 5,0 7,5 3,5 6,2 27 15 47 25 SSW 1013,4 20 0 0,0
13.01.2019 13:00:00 7,6 4,5 6,9 3,4 6,2 23 12 40 21 SSW 1013,8 20 0 0,0
13.01.2019 12:00:00 7,1 4,6 6,6 3,3 6,2 21 12 42 23 SSW 1014,7 20 0 0,0
13.01.2019 11:00:00 6,5 4,3 5,5 3,2 6,2 23 12 42 23 SSW 1015,1 20 0 0,0
13.01.2019 10:00:00 5,7 3,9 5,3 3,1 6,2 21 11 40 21 S 1015,9 20 0 0,0
13.01.2019 09:00:00 5,7 3,7 4,8 3,0 6,2 22 12 39 21 SSW 1016,2 20 0 0,0
13.01.2019 08:00:00 5,7 3,9 4,9 3,0 6,2 16 9 27 15 SSW 1016,7 20 0 0,0
13.01.2019 07:00:00 5,5 3,7 4,8 2,9 6,2 11 6 26 14 S 1017,2 20 0 0,0
13.01.2019 06:00:00 5,1 3,4 4,6 2,9 6,2 15 8 25 13 SSW 1017,4 20 0 0,0
13.01.2019 05:00:00 5,0 3,2 4,5 2,8 6,2 11 6 20 11 SSW 1018,0 20 0 0,0
13.01.2019 04:00:00 4,9 3,1 4,3 2,8 6,2 13 7 30 16 SW 1018,6 20 0 0,0
13.01.2019 03:00:00 4,6 2,9 3,8 2,8 6,3 21 11 33 18 SSW 1018,9 20 0 0,0
13.01.2019 02:00:00 4,5 2,7 4,0 2,7 6,2 23 12 38 20 SSW 1019,0 20 0 0,0
13.01.2019 01:00:00 4,3 2,3 3,7 2,7 6,2 26 14 45 24 SSW 1019,1 20 0 0,0
13.01.2019 00:00:00 3,9 2,3 3,1 2,7 6,2 24 13 37 20 SW 1019,7 20 0 0,0
12.01.2019 23:00:00 3,5 1,9 2,9 2,6 6,2 22 12 40 21 SSW 1020,6 20 0 0,0
12.01.2019 22:00:00 3,6 2,1 2,9 2,6 6,2 28 15 47 26 SSW 1021,0 20 0 0,2
12.01.2019 21:00:00 4,1 2,1 3,6 2,5 6,3 26 14 46 25 SW 1021,5 20 0 0,0
12.01.2019 20:00:00 4,3 1,8 3,7 2,5 6,3 23 12 44 24 SW 1021,8 20 0 0,0
12.01.2019 19:00:00 4,1 1,8 3,4 2,5 6,3 26 14 44 24 SSW 1022,0 20 0 0,0
12.01.2019 18:00:00 3,6 1,6 3,3 2,4 6,3 15 8 36 19 S 1023,4 20 0 0,0
12.01.2019 17:00:00 3,6 1,6 3,2 2,4 6,3 21 11 41 22 SSW 1024,1 20 0 0,0
12.01.2019 16:00:00 3,6 1,6 3,6 2,2 6,3 23 12 39 21 SSW 1024,7 20 0 0,0
12.01.2019 15:00:00 3,9 1,8 3,9 2,0 6,3 21 11 42 23 SSW 1025,4 20 0 0,0
12.01.2019 14:00:00 3,7 1,6 3,9 1,8 6,3 23 12 40 21 SSW 1025,4 20 1 0,0
12.01.2019 13:00:00 3,9 1,3 4,2 1,7 6,4 19 10 31 17 S 1026,3 20 0 0,0
12.01.2019 12:00:00 3,5 0,9 3,1 1,5 6,4 13 7 21 12 S 1027,4 20 0 0,0
12.01.2019 11:00:00 2,7 0,6 2,3 1,4 6,4 10 6 22 12 S 1028,3 20 0 0,0
12.01.2019 10:00:00 2,1 0,2 1,5 1,4 6,4 10 5 21 11 S 1028,6 20 0 0,0
12.01.2019 09:00:00 1,6 0,0 1,2 1,4 6,4 9 5 24 13 S 1028,5 19 0 0,0
12.01.2019 08:00:00 1,4 -0,2 1,0 1,4 6,4 14 8 24 13 S 1027,9 19 0 0,0
12.01.2019 07:00:00 1,3 -0,3 0,8 1,4 6,4 12 6 24 13 S 1028,1 17 0 0,0
12.01.2019 06:00:00 1,2 -0,4 0,6 1,4 6,4 14 7 26 14 S 1028,0 17 0 0,0
12.01.2019 05:00:00 1,1 -0,5 0,4 1,4 6,5 12 7 22 12 S 1028,3 19 0 0,0
12.01.2019 04:00:00 0,9 -0,6 0,2 1,4 6,4 11 6 22 12 S 1028,5 16 0 0,0
12.01.2019 03:00:00 0,8 -0,7 0,2 1,4 6,5 11 6 24 13 S 1028,8 11 0 0,0
12.01.2019 02:00:00 1,0 -1,1 0,7 1,4 6,5 13 7 24 13 S 1028,5 18 0 0,0
12.01.2019 01:00:00 0,8 -1,1 0,6 1,4 6,5 16 8 27 15 S 1028,5 13 0 0,0
12.01.2019 00:00:00 0,7 -1,4 0,4 1,4 6,5 16 9 25 14 S 1028,4 18 0 0,0
11.01.2019 23:00:00 0,6 -1,6 0,4 1,4 6,5 11 6 25 14 S 1028,4 16 0 0,0
11.01.2019 22:00:00 0,6 -1,6 0,1 1,4 6,5 13 7 22 12 S 1028,3 14 0 0,0
11.01.2019 21:00:00 0,4 -1,4 0,0 1,5 6,5 14 7 24 13 S 1028,2 12 0 0,2
11.01.2019 20:00:00 0,3 -1,1 -0,1 1,4 6,5 13 7 24 13 S 1028,2 9 0 0,0
11.01.2019 19:00:00 0,2 -1,6 -0,1 1,4 6,5 13 7 26 14 S 1028,2 9 0 0,0
11.01.2019 18:00:00 0,3 -1,5 -0,1 1,4 6,5 13 7 26 14 S 1027,9 8 0 0,0
11.01.2019 17:00:00 0,9 -2,2 0,7 1,5 6,5 15 8 26 14 S 1027,6 18 0 0,0
11.01.2019 16:00:00 1,0 -2,8 0,9 1,5 6,6 13 7 24 13 S 1027,7 20 0 0,0
11.01.2019 15:00:00 1,0 -2,6 0,9 1,5 6,5 10 6 18 10 S 1027,6 19 0 0,0
11.01.2019 14:00:00 0,8 -2,8 0,8 1,5 6,6 10 6 19 10 S 1027,7 20 0 0,0
11.01.2019 13:00:00 0,6 -3,3 0,9 1,5 6,6 9 5 15 8 S 1028,2 20 0 0,0
11.01.2019 12:00:00 0,3 -2,7 0,0 1,6 6,6 8 5 13 7 S 1028,7 20 0 0,0
11.01.2019 11:00:00 -0,4 -2,8 -0,8 1,6 6,6 5 3 9 5 SSW 1029,1 20 0 0,0
11.01.2019 10:00:00 -1,2 -2,5 -2,3 1,6 6,6 4 2 9 5 SSW 1028,9 19 0 0,0
11.01.2019 09:00:00 -2,8 -3,3 -4,8 1,6 6,6 5 3 6 3 SSW 1029,0 18 0 0,0
11.01.2019 08:00:00 -3,4 -4,4 -4,8 1,7 6,6 3 2 4 2 SSW 1028,8 12 0 0,0
11.01.2019 07:00:00 -3,6 -4,7 -4,3 1,7 6,6 0 0 5 3 N 1028,6 18 0 0,0
11.01.2019 06:00:00 -2,9 -3,9 -3,5 1,8 6,6 3 1 5 3 E 1028,4 20 0 0,0
11.01.2019 05:00:00 -3,0 -4,0 -4,1 1,8 6,6 3 1 5 3 ENE 1028,2 20 0 0,0
11.01.2019 04:00:00 -2,9 -4,0 -3,6 1,9 6,6 3 1 4 2 ENE 1028,1 18 0 0,0
11.01.2019 03:00:00 -2,0 -3,4 -3,0 1,9 6,7 2 1 8 4 N 1028,0 20 0 0,0
11.01.2019 02:00:00 -1,9 -3,5 -5,2 2,0 6,6 5 3 9 5 N 1027,8 20 0 0,0
11.01.2019 01:00:00 -2,7 -3,7 -5,8 2,1 6,6 4 2 5 3 N 1027,7 18 0 0,0
11.01.2019 00:00:00 -1,5 -2,8 -4,1 2,1 6,6 5 3 12 6 N 1027,7 16 0 0,0
10.01.2019 23:00:00 -1,1 -2,2 -3,8 2,2 6,7 4 2 5 3 N 1027,7 19 0 0,0
10.01.2019 22:00:00 -0,4 -2,3 -1,6 2,3 6,7 3 2 8 4 N 1027,4 20 0 0,0
10.01.2019 21:00:00 -0,2 -1,8 -1,8 2,4 6,7 5 3 11 6 NE 1027,2 20 0 0,0
10.01.2019 20:00:00 0,5 -1,9 -0,4 2,4 6,7 9 5 17 9 NE 1026,8 20 0 0,0
10.01.2019 19:00:00 1,0 -1,6 0,6 2,5 6,7 10 5 18 10 NNE 1026,4 20 0 0,0
10.01.2019 18:00:00 1,3 -1,9 1,0 2,5 6,7 9 5 22 12 NNE 1026,1 20 0 0,0
10.01.2019 17:00:00 1,5 -1,6 1,1 2,5 6,7 8 4 22 12 NE 1025,9 20 0 0,0

tt = Température de l'air
td = dewpoint
tt 5cm = Température de l'air 5cm
tt -20cm = Température de l'air -20cm
tt -100cm = Température de l'air -100cm
ff = Vitesse du vent
fx = gusts
dd = Direction du vent
ppp = reduced air pressure
vv = visibility
sd = Ensoleillement
rr = Quantités de précipitations

stations d'obs. à proximité